Retour au catalogue

THORAD AGENA D DEB

ActifPO
NORAD 42552·DEBRIS·🇺🇸 United States

Lancé Apr 8, 1970 depuis Vandenberg Space Force Base

Loading…

Prochains Passages (prochaines 24 heures)

TLE

FraisSource: Space-Track

Époque: Sep 11, 2026, 17:55 UTC

1 42552U 70025TJ  26254.74719601  .00000869  00000-0  14306-2 0  9995
2 42552  99.3904 185.3624 0177049  55.3511 306.4170 13.43933146625417

Suivez THORAD AGENA D DEB en temps réel avec AllMySat

Download on the App Store